Location: Lombard
(41.8800°N, 88.0080°W)
Time: 04:49:11
(UTC-05:00)

Vanguard 2 Rocket - Pass Details

Date: 29 February 2024
Orbit: 555 x 3307 km, 32.9° (Epoch: 12 April)

Event Time Altitude Azimuth Distance (km) Brightness Sun altitude
Rises 12:04:55 0° 216° (SW) 3,344 10.4 40.5°
Reaches altitude 10° 12:07:22 10° 203° (SSW) 2,662 10.3 40.5°
Maximum altitude 12:12:44 27° 147° (SSE) 2,220 10.0 40.5°
Drops below altitude 10° 12:20:57 10° 95° (E) 4,195 10.4 40.4°
Sets 12:25:58 0° 86° (E) 5,716 10.9 40.3°
